| time (UTC) | temp F | wind direction | speed knots | gust knots | rain 1hr in | rain 24hr in | rain mn in | humidity % | barometer mb |
| 20260504081532 | 54 | 194 | 0.0 | 0.0 | 0.00 | 0.00 | 0.00 | 91 | 1018.4 |
| 20260504050009 | 58 | 194 | 0.0 | 0.0 | 0.00 | 0.00 | 0.00 | 87 | 1019.8 |
| 20260504044512 | 58 | 194 | 0.0 | 0.0 | 0.00 | 0.00 | 0.00 | 86 | 1019.9 |
| 20260504043015 | 58 | 194 | 0.0 | 0.0 | 0.00 | 0.00 | 0.00 | 86 | 1019.9 |
| 20260504041504 | 58 | 194 | 0.0 | 0.0 | 0.00 | 0.00 | 0.00 | 87 | 1019.9 |
| 20260504040007 | 58 | 194 | 0.0 | 0.0 | 0.00 | 0.00 | 0.00 | 86 | 1019.9 |
| 20260504034516 | 59 | 194 | 0.0 | 0.0 | 0.00 | 0.00 | 0.00 | 86 | 1019.9 |
| 20260504033024 | 59 | 244 | 0.0 | 0.0 | 0.00 | 0.00 | 0.00 | 85 | 1019.9 |
| 20260504031528 | 59 | 244 | 0.0 | 0.0 | 0.00 | 0.00 | 0.00 | 85 | 1019.9 |
| 20260504030004 | 60 | 244 | 0.0 | 0.0 | 0.00 | 0.00 | 0.00 | 82 | 1019.8 |
| 20260504024525 | 61 | 244 | 0.0 | 0.0 | 0.00 | 0.00 | 0.00 | 81 | 1019.6 |
| 20260504023012 | 61 | 244 | 0.0 | 0.0 | 0.00 | 0.00 | 0.00 | 80 | 1019.5 |
| 20260504021516 | 62 | 244 | 0.0 | 0.0 | 0.00 | 0.00 | 0.00 | 76 | 1019.5 |
| 20260504020022 | 63 | 244 | 0.0 | 0.0 | 0.00 | 0.00 | 0.00 | 75 | 1019.2 |
| 20260504014503 | 63 | 244 | 0.0 | 0.0 | 0.00 | 0.00 | 0.00 | 74 | 1019.1 |
| 20260504013015 | 64 | 244 | 0.0 | 0.0 | 0.00 | 0.00 | 0.00 | 71 | 1018.7 |
| 20260504011512 | 66 | 244 | 0.0 | 0.0 | 0.00 | 0.00 | 0.00 | 68 | 1018.7 |
| 20260504010018 | 67 | 244 | 0.0 | 0.0 | 0.00 | 0.00 | 0.00 | 65 | 1018.7 |
| 20260504004538 | 69 | 244 | 0.0 | 0.0 | 0.00 | 0.00 | 0.00 | 60 | 1018.6 |
| 20260504003027 | 70 | 244 | 0.0 | 0.0 | 0.00 | 0.00 | 0.00 | 56 | 1018.5 |
| 20260504001509 | 72 | 244 | 0.0 | 4.3 | 0.00 | 0.00 | 0.00 | 51 | 1018.4 |
| 20260504000019 | 74 | 219 | 1.7 | 4.3 | 0.00 | 0.00 | 0.00 | 46 | 1018.4 |
| 20260503234521 | 75 | 207 | 3.5 | 7.0 | 0.00 | 0.00 | 0.00 | 44 | 1018.4 |
| 20260503233030 | 75 | 196 | 4.3 | 7.0 | 0.00 | 0.00 | 0.00 | 41 | 1018.5 |
| 20260503231526 | 75 | 212 | 3.5 | 7.8 | 0.00 | 0.00 | 0.00 | 41 | 1018.7 |
| 20260503230013 | 76 | 236 | 3.5 | 7.0 | 0.00 | 0.00 | 0.00 | 40 | 1018.7 |
| 20260503224521 | 76 | 209 | 2.6 | 9.6 | 0.00 | 0.00 | 0.00 | 40 | 1018.9 |
| 20260503223025 | 76 | 279 | 0.0 | 9.6 | 0.00 | 0.00 | 0.00 | 39 | 1019.0 |
| 20260503221525 | 76 | 213 | 0.0 | 8.7 | 0.00 | 0.00 | 0.00 | 39 | 1018.9 |
| 20260503220033 | 76 | 218 | 6.1 | 8.7 | 0.00 | 0.00 | 0.00 | 39 | 1019.2 |
| 20260503214516 | 76 | 251 | 4.3 | 10.4 | 0.00 | 0.00 | 0.00 | 40 | 1019.3 |
| 20260503213026 | 77 | 306 | 7.0 | 11.3 | 0.00 | 0.00 | 0.00 | 39 | 1019.5 |
| 20260503211535 | 77 | 224 | 4.3 | 8.7 | 0.00 | 0.00 | 0.00 | 38 | 1019.7 |
| 20260503210010 | 78 | 225 | 3.5 | 11.3 | 0.00 | 0.00 | 0.00 | 35 | 1019.8 |
| 20260503204516 | 79 | 209 | 0.9 | 6.1 | 0.00 | 0.00 | 0.00 | 33 | 1020.0 |
| 20260503203022 | 77 | 259 | 3.5 | 8.7 | 0.00 | 0.00 | 0.00 | 36 | 1020.2 |
| 20260503201503 | 77 | 216 | 2.6 | 8.7 | 0.00 | 0.00 | 0.00 | 35 | 1020.4 |
| 20260503200008 | 77 | 201 | 0.9 | 7.8 | 0.00 | 0.00 | 0.00 | 34 | 1020.6 |
| 20260503194511 | 77 | 281 | 4.3 | 8.7 | 0.00 | 0.00 | 0.00 | 37 | 1020.8 |
| 20260503193034 | 77 | 237 | 5.2 | 11.3 | 0.00 | 0.00 | 0.00 | 36 | 1021.0 |
| 20260503191522 | 77 | 215 | 4.3 | 8.7 | 0.00 | 0.00 | 0.00 | 38 | 1021.3 |
| 20260503190013 | 78 | 239 | 0.0 | 0.0 | 0.00 | 0.00 | 0.00 | 35 | 1021.5 |
| 20260503184509 | 79 | 292 | 1.7 | 5.2 | 0.00 | 0.00 | 0.00 | 29 | 1021.6 |
| 20260503183013 | 78 | 155 | 0.9 | 6.1 | 0.00 | 0.00 | 0.00 | 34 | 1021.8 |
| 20260503181520 | 78 | 350 | 0.0 | 0.9 | 0.00 | 0.00 | 0.00 | 33 | 1022.0 |
| 20260503180021 | 75 | 59 | 4.3 | 10.4 | 0.00 | 0.00 | 0.00 | 33 | 1022.0 |
| 20260503174507 | 75 | 319 | 0.9 | 5.2 | 0.00 | 0.00 | 0.00 | 37 | 1022.2 |
| 20260503173018 | 74 | 24 | 0.0 | 7.0 | 0.00 | 0.00 | 0.00 | 35 | 1022.6 |
| 20260503171518 | 75 | 38 | 3.5 | 7.8 | 0.00 | 0.00 | 0.00 | 33 | 1022.9 |